Wind_Speed
1 1 3 1 1 3 4 3 2 3 3 1 1 1 0 0 1 2 3 2 3 3 3 3 4 4 3 1 3 8 12 14 14 14 15 16 16 17 17 17 17 18 18 17 17 17 16 15 13 12 10 9 10 10 9 11 10 11 12 12 13 14 15 15 16 17 17 18 18 17 17 17 17 16 16 15 14 15 15 16 17 17 17 16 14 12
0 3 2 1 2 3 2 2 1 1 1 1 1 1 1 1 1 2 2 2 2 3 3 3 5 6 4 2 4 7 11 15 17 16 17 17 17 17 18 18 18 18 18 17 18 19 18 17 16 14 12 11 12 12 10 11 10 11 12 12 13 14 15 15 16 16 16 17 18 18 18 18 17 16 15 14 13 14 16 16 16 16 15 14 13 11
1 4 4 4 4 3 1 2 3 2 1 1 1 2 1 1 2 3 3 2 1 3 4 4 6 7 4 4 6 9 11 14 17 17 17 19 18 18 18 19 18 19 19 19 19 20 20 20 18 17 14 13 13 13 11 10 11 11 12 13 14 14 15 15 16 16 15 15 16 16 17 17 16 15 14 14 13 13 15 16 16 15 14 12 11 10
2 2 3 5 7 5 2 2 4 3 3 3 2 3 1 2 2 0 2 2 2 1 2 4 6 6 4 4 6 10 11 10 11 13 15 17 19 20 22 21 20 20 21 22 21 20 21 21 20 19 17 15 15 15 12 11 12 12 13 13 14 15 15 15 16 16 15 15 15 16 16 16 15 15 14 14 13 13 14 16 16 15 13 11 10 10
3 1 5 7 6 5 4 3 5 4 3 3 5 5 2 4 3 1 4 4 2 1 1 3 5 6 5 7 8 9 10 9 10 12 14 17 19 20 20 20 22 21 22 24 22 21 23 23 22 20 19 17 16 17 14 13 13 13 13 13 14 15 15 15 16 16 16 16 16 17 18 18 17 16 16 16 15 13 13 15 16 15 14 12 11 10
3 2 7 6 4 5 4 4 6 5 4 3 6 8 6 6 5 6 8 5 1 1 2 4 5 3 4 8 10 7 8 11 11 12 16 17 18 20 19 20 23 23 24 26 24 23 24 23 22 21 21 20 18 18 16 14 13 12 12 14 15 15 15 15 16 16 16 16 16 17 18 19 18 18 18 17 16 15 14 14 15 15 14 12 11 10
1 3 5 5 5 6 6 5 5 5 5 3 3 6 7 6 5 9 7 3 2 2 1 5 6 4 1 5 8 8 10 13 12 13 18 18 17 21 22 22 24 25 25 26 26 25 25 24 23 23 22 21 20 20 18 16 14 13 12 14 15 16 16 15 16 16 17 17 16 16 17 18 18 18 17 16 16 15 14 13 14 14 14 13 12 11
2 3 3 4 4 5 5 4 5 9 6 2 1 4 7 7 7 8 5 1 1 1 2 6 6 6 5 2 4 9 11 12 13 14 18 19 18 21 24 24 25 28 27 27 28 28 27 26 25 24 22 21 21 21 21 18 16 14 13 14 16 16 16 15 15 16 17 18 17 17 17 18 18 17 15 14 14 14 13 12 12 13 13 13 12 11
2 2 3 4 2 3 5 2 5 11 4 1 6 10 10 10 10 9 5 2 2 2 3 5 4 5 5 1 2 6 11 13 16 16 17 19 20 24 28 27 27 31 32 30 31 30 30 29 27 25 23 22 22 22 22 20 18 16 14 14 16 16 17 16 16 16 17 17 17 18 18 18 18 16 14 13 13 13 13 12 12 12 12 12 12 11
1 2 2 4 1 2 3 1 6 10 4 6 12 14 12 11 9 7 3 2 2 3 3 5 7 4 6 2 1 3 7 9 12 12 15 19 21 26 32 32 31 32 34 33 33 32 32 31 28 26 25 24 23 22 22 22 20 18 16 15 16 17 17 18 17 17 17 17 18 19 19 19 18 16 14 13 13 13 12 12 12 13 12 11 11 11
3 2 2 2 0 3 2 1 3 7 10 11 12 13 11 8 6 4 2 1 2 3 1 5 11 7 4 2 2 0 2 4 6 6 11 17 20 24 30 34 34 33 33 34 33 33 33 31 29 28 28 26 25 24 24 24 23 20 18 17 16 16 18 19 18 17 17 17 18 19 19 19 18 17 15 14 14 14 13 13 13 12 12 11 11 11
2 2 1 2 1 4 2 3 3 4 10 8 5 8 7 3 2 3 1 2 3 2 2 2 9 8 5 1 5 4 5 7 7 7 9 15 21 24 26 33 37 35 35 35 34 34 33 31 31 30 30 29 28 27 26 25 24 22 20 18 17 17 18 19 19 17 17 17 18 19 19 19 18 17 16 15 14 14 14 13 12 12 12 11 11 11
2 2 3 3 1 5 3 3 4 4 6 2 3 6 4 1 1 1 0 2 4 1 3 1 5 5 6 2 7 8 8 9 10 10 11 15 22 24 25 31 36 36 36 36 35 35 33 33 32 32 32 31 30 28 26 26 25 25 23 20 19 18 18 19 19 18 17 17 17 17 18 18 18 17 16 15 14 14 14 13 13 12 12 11 12 12
1 2 6 5 1 6 5 1 3 4 6 5 5 5 3 2 2 2 1 2 4 1 3 1 5 4 4 0 6 9 9 11 12 13 14 16 22 25 27 30 34 36 36 36 36 35 35 35 33 33 33 32 30 28 27 27 26 26 24 22 21 20 20 20 19 18 18 17 17 17 17 18 18 17 17 15 14 14 14 13 13 12 12 12 12 12
0 1 6 6 2 7 6 1 1 2 6 5 3 3 4 3 3 3 3 2 2 2 3 1 4 3 2 3 5 10 11 13 15 15 12 11 19 23 25 24 26 32 33 34 35 35 36 36 34 33 33 32 31 30 29 28 27 26 25 24 22 21 21 21 20 19 18 18 18 17 18 18 18 18 17 16 15 15 14 13 13 13 12 12 12 12
2 1 3 4 4 5 5 2 2 1 4 2 1 4 3 2 2 1 2 3 3 1 3 2 3 2 1 2 5 12 13 16 19 17 12 4 11 17 20 21 23 28 30 30 32 34 35 35 35 34 33 33 32 31 30 29 28 26 25 24 23 21 21 22 22 21 20 19 18 18 18 18 18 18 18 17 16 15 15 14 14 14 13 13 12 12
1 2 2 5 2 2 6 3 2 2 1 3 3 3 1 1 0 3 3 3 3 1 1 1 3 2 1 1 7 13 13 16 19 17 14 7 5 14 18 21 24 27 28 28 29 31 33 34 34 35 34 34 34 33 31 29 27 26 25 25 24 22 22 22 22 22 21 21 20 19 19 19 19 19 18 18 17 16 16 15 15 15 15 14 13 12
1 1 1 4 2 5 8 3 2 6 4 2 2 2 2 1 1 2 1 2 2 2 2 1 3 3 2 1 8 15 15 15 16 15 15 12 3 8 13 17 23 25 25 26 27 28 30 32 34 35 35 35 34 33 32 29 27 27 26 25 25 24 23 22 22 23 23 22 22 21 20 20 20 19 19 18 17 17 17 16 15 15 15 15 13 13
1 1 1 1 3 6 8 2 1 8 9 4 3 2 0 1 2 2 1 2 3 2 4 3 2 2 2 3 9 13 14 13 13 12 12 13 10 4 2 7 15 19 19 23 25 26 26 29 32 34 35 36 35 34 33 31 29 29 28 27 26 25 23 22 22 23 23 24 24 23 21 21 21 20 20 19 19 19 18 18 17 16 16 15 14 14
1 2 0 1 2 5 4 2 0 5 7 4 3 2 2 1 0 1 1 2 3 2 2 5 4 1 1 4 9 10 11 10 10 10 9 10 11 9 7 5 8 14 16 19 22 24 25 27 29 32 35 36 35 35 34 33 32 31 30 28 28 27 25 24 24 23 23 23 25 24 23 22 21 21 21 21 20 20 20 19 18 17 17 16 15 15
0 1 1 2 2 3 1 3 2 3 4 3 4 4 4 1 0 1 1 2 3 4 2 6 7 1 2 3 6 8 9 8 9 8 6 8 10 9 5 5 9 13 17 19 22 24 26 26 27 29 32 33 34 34 34 34 33 32 32 30 29 28 27 26 25 24 23 23 24 25 24 23 22 22 22 22 22 22 21 20 19 19 18 17 16 16
0 0 1 1 1 2 3 4 3 3 3 3 4 4 3 2 1 2 3 2 1 2 3 4 7 1 2 2 4 6 6 7 10 10 8 10 12 13 9 2 4 10 15 19 22 25 26 27 26 26 29 31 32 33 34 34 34 33 33 32 31 31 30 28 26 25 24 23 23 24 24 23 22 22 22 23 23 23 23 21 20 20 19 18 18 17
1 1 0 0 1 1 1 2 1 1 2 2 5 2 2 3 1 2 3 3 1 1 3 0 4 1 2 2 3 5 6 7 11 11 9 10 11 11 10 7 2 4 10 15 18 21 24 28 27 24 26 29 31 32 33 33 34 33 33 33 33 33 32 30 29 27 26 25 24 23 23 23 23 22 22 23 24 24 24 23 21 21 21 20 19 18
2 1 0 0 1 2 3 4 2 2 2 1 5 2 2 2 1 0 1 2 1 1 2 1 3 1 2 4 4 4 6 8 11 11 10 9 10 10 9 5 3 1 5 11 14 15 18 24 25 23 22 25 28 29 31 32 32 33 33 33 34 33 33 32 31 29 28 27 25 24 24 24 23 23 23 23 24 25 24 23 22 22 22 21 20 19
2 0 0 1 1 2 3 3 4 3 2 1 2 1 1 3 4 3 4 2 1 1 1 3 3 1 2 3 4 4 5 9 13 11 10 12 12 12 9 5 3 3 3 8 12 12 13 15 17 18 17 19 23 26 28 28 29 30 32 33 33 33 33 32 31 30 28 28 27 27 27 26 25 24 24 24 25 25 24 24 23 22 22 21 21 20
1 1 1 1 2 3 2 2 2 2 2 1 1 1 1 4 6 4 3 3 3 1 0 2 1 3 2 2 4 5 6 9 12 13 11 11 11 11 10 7 4 5 5 5 8 11 12 11 12 14 12 11 13 17 19 22 25 27 29 31 32 32 32 32 32 30 29 28 28 29 29 29 27 26 25 24 24 24 24 24 23 23 22 22 21 20
2 1 1 1 1 1 1 1 0 0 1 2 1 2 2 3 6 5 3 2 2 2 1 1 0 3 3 4 5 7 9 8 11 13 12 10 9 9 10 9 7 6 7 6 6 7 8 8 9 11 12 11 11 11 12 15 19 21 23 26 28 30 32 32 32 30 28 28 29 31 30 29 28 27 26 25 24 24 25 25 24 23 23 23 22 20
2 2 1 1 1 2 3 3 1 1 1 0 0 1 3 4 6 6 3 3 3 2 2 1 0 2 3 5 6 8 10 9 11 13 13 11 11 12 13 12 11 10 9 8 8 7 5 4 5 7 11 15 18 17 15 15 16 17 19 22 24 27 31 32 32 31 30 29 30 32 31 29 29 29 28 27 26 25 25 25 25 24 24 23 23 21
1 1 1 1 1 2 3 3 2 1 1 2 3 3 3 4 7 8 6 5 4 1 2 4 3 1 3 4 7 9 10 9 12 13 12 12 12 13 14 14 15 14 12 12 12 11 9 7 3 2 6 11 15 18 18 18 19 19 20 21 22 26 29 31 31 31 31 31 32 33 32 29 28 28 29 29 27 26 26 26 25 25 24 24 23 22
1 1 1 1 1 3 4 3 1 0 2 3 5 5 4 4 8 11 9 9 8 7 7 7 6 2 2 2 5 8 11 13 15 14 13 13 13 13 14 15 16 17 16 15 15 14 13 11 9 5 2 3 7 11 14 15 17 19 20 21 23 25 26 27 29 30 31 32 32 34 34 31 29 29 29 29 28 27 26 26 26 26 25 25 24 23
1 1 2 1 1 2 5 3 1 1 1 2 5 5 4 4 6 8 9 9 7 7 7 6 9 6 0 3 5 8 13 14 14 14 13 13 13 13 14 15 16 18 18 18 18 17 15 13 12 10 7 6 3 5 8 10 12 14 15 18 21 24 23 22 24 27 30 31 31 32 32 31 30 32 32 31 30 29 27 26 26 26 26 26 25 25
1 1 2 1 1 1 4 4 1 2 1 1 1 3 3 2 2 3 4 5 4 6 9 5 3 6 3 2 5 9 12 12 11 12 13 12 13 13 13 14 16 18 20 20 20 20 19 17 15 13 11 10 8 6 5 7 8 9 11 12 15 19 20 21 22 24 27 29 31 32 32 32 32 35 36 34 31 29 28 27 26 26 27 27 27 26
1 1 1 1 1 1 3 3 2 1 2 3 1 1 2 2 3 3 2 2 4 7 7 4 2 3 4 2 3 8 10 10 9 9 11 12 12 12 12 14 17 20 20 21 22 22 22 21 19 16 14 13 12 11 10 8 6 6 8 9 10 12 14 18 20 22 25 27 30 33 35 35 35 36 37 37 34 30 29 28 27 27 27 27 27 27
2 1 1 1 1 1 2 2 1 2 3 1 1 1 1 1 2 1 1 3 5 6 4 2 3 3 3 3 3 7 9 9 8 7 8 10 11 12 14 17 19 20 21 22 23 23 23 23 22 20 17 15 13 13 12 11 8 6 6 7 9 10 12 14 16 18 21 24 28 32 33 34 36 36 36 37 34 30 28 28 28 28 27 26 26 26
3 2 2 0 1 1 2 0 3 3 2 3 3 1 2 1 1 1 1 3 5 6 7 6 4 4 1 2 5 8 9 8 7 7 7 9 11 12 15 17 19 19 21 22 22 23 23 24 23 22 21 19 17 15 14 13 9 7 7 7 8 10 11 13 16 18 20 23 26 29 30 32 34 34 34 35 34 31 29 29 28 27 26 26 26 27
3 3 2 1 1 1 2 3 3 2 4 4 4 2 3 2 2 2 3 4 6 6 6 8 6 4 4 4 5 7 6 5 6 7 7 7 9 11 13 15 16 17 19 20 20 22 23 23 24 23 23 22 21 20 20 17 12 8 6 6 7 8 9 10 12 15 18 22 26 27 28 29 30 30 31 32 31 30 28 26 23 22 25 28 28 27
3 4 3 1 0 0 2 3 2 5 5 4 3 3 3 2 1 1 1 4 7 8 6 7 8 8 7 5 4 4 4 3 4 5 6 6 7 9 11 13 15 15 16 17 18 19 20 21 21 22 21 22 23 23 22 20 15 12 10 9 8 7 7 8 8 8 10 15 21 24 24 25 26 27 27 26 24 23 22 21 19 20 23 25 25 24
2 2 2 2 1 1 1 2 2 3 3 2 3 4 3 3 3 3 1 1 5 9 9 8 8 10 10 9 7 4 1 1 2 2 3 5 7 8 9 11 13 14 14 15 16 17 18 18 19 20 20 22 23 23 22 20 17 15 16 16 16 14 11 9 8 8 7 4 3 6 9 10 11 14 16 17 15 14 13 13 15 17 17 17 16 17
5 3 2 2 2 2 3 2 3 3 2 1 4 5 5 5 5 4 2 1 2 7 10 10 10 11 11 12 10 6 3 2 3 3 2 4 7 8 9 10 12 13 13 14 15 15 16 16 16 18 20 22 22 22 21 20 20 20 21 22 22 22 22 20 15 12 11 10 9 9 10 8 6 6 8 8 8 9 9 9 10 11 11 11 12 13
5 3 1 2 3 3 3 2 2 3 1 2 1 4 6 6 4 3 3 1 2 7 10 10 11 12 12 13 12 8 5 2 3 5 6 6 8 8 9 9 10 11 11 12 13 13 13 13 15 17 21 22 21 20 19 19 19 22 24 24 25 26 26 24 20 17 16 15 13 12 11 10 9 8 8 8 6 4 5 6 8 9 10 10 11 12
3 2 1 1 3 3 4 3 2 2 1 0 2 5 8 6 3 3 2 2 6 7 7 9 11 12 13 15 13 9 6 4 4 7 8 7 8 9 9 9 9 10 10 11 12 12 12 13 15 17 19 20 20 20 19 18 18 21 23 23 25 27 25 22 21 20 20 19 18 16 15 14 13 12 12 10 7 3 0 2 3 5 8 9 10 11
2 2 1 1 2 2 2 2 2 2 1 3 5 7 8 4 2 1 2 6 8 7 6 8 10 11 12 14 12 9 8 8 8 9 9 7 7 8 9 8 8 9 10 10 11 12 12 13 14 16 17 17 17 18 18 18 18 20 22 22 24 23 21 20 19 19 20 20 20 19 18 17 17 16 16 15 13 9 5 4 3 2 2 5 6 8
3 3 3 2 2 2 1 2 2 2 3 9 9 6 4 3 1 4 7 7 7 7 7 8 9 9 10 11 10 10 10 12 13 12 10 8 7 7 7 7 8 9 10 11 13 14 15 15 16 17 17 17 17 17 17 17 18 19 20 22 21 20 18 18 18 17 18 19 19 19 18 18 17 17 16 16 15 13 11 9 7 5 3 3 3 4
2 3 2 2 3 2 2 3 1 3 4 13 9 3 3 3 3 7 9 7 7 8 8 8 7 7 8 9 11 13 15 16 15 13 11 9 7 6 6 8 9 11 11 12 14 15 15 16 17 17 17 17 17 17 17 17 16 17 19 20 19 17 17 17 16 16 17 18 19 19 19 18 17 16 16 15 14 12 11 11 10 9 7 5 2 2
1 1 1 1 3 2 1 0 1 3 4 11 6 1 5 9 7 7 8 6 7 8 7 8 10 9 8 10 14 17 18 17 15 13 11 9 7 7 8 9 11 12 13 13 14 15 15 16 16 16 17 18 18 17 17 16 15 15 17 17 16 15 15 15 15 15 16 17 18 18 19 18 18 17 16 15 14 13 12 11 10 10 10 9 6 3
1 2 1 1 2 2 1 1 0 1 3 7 6 5 10 11 8 7 7 7 8 8 7 9 12 13 12 14 18 20 19 17 15 13 11 9 9 10 10 11 13 14 14 14 15 15 15 15 15 16 16 17 18 18 18 17 16 15 15 15 14 14 14 13 13 14 15 15 16 16 16 16 17 17 17 15 14 14 13 12 11 11 10 10 10 8
2 4 2 1 2 3 2 2 2 2 3 6 8 10 11 11 9 8 7 8 9 10 10 10 12 14 14 15 19 20 18 16 14 12 10 10 11 12 12 12 13 14 14 14 13 13 13 12 13 14 15 16 17 18 18 18 17 15 14 13 13 13 12 12 12 13 14 14 15 14 15 15 16 17 17 17 16 15 14 12 12 10 9 10 10 11
5 6 3 2 3 2 1 2 2 2 4 8 11 12 11 11 11 9 9 10 11 12 12 12 13 14 14 14 16 18 17 14 12 11 11 11 12 12 12 12 12 12 12 12 11 10 10 10 11 11 12 13 15 16 16 17 16 15 14 12 12 12 12 12 12 12 13 13 13 13 14 15 15 16 16 17 17 16 15 13 12 11 10 11 11 11
7 7 4 3 4 1 1 2 4 2 3 7 11 12 13 12 11 11 11 12 13 13 13 13 12 12 13 13 14 15 15 13 11 11 12 12 12 11 11 10 9 9 9 10 10 10 10 10 10 10 10 11 11 12 13 14 14 14 13 12 12 12 11 12 12 12 12 12 12 12 13 13 13 14 15 16 16 16 15 14 13 12 12 12 12 11
6 5 3 3 4 3 2 8 12 5 3 10 14 14 15 14 12 13 14 14 14 14 14 15 14 13 12 12 13 13 14 14 13 12 12 12 12 11 9 7 6 6 6 7 8 8 9 10 10 10 10 9 9 9 10 11 12 12 13 12 12 12 12 12 11 11 11 11 11 10 10 10 11 11 12 14 15 15 15 14 14 12 12 12 12 12
8 8 8 6 3 1 4 15 21 10 2 12 20 18 16 16 13 14 15 14 14 14 13 15 16 16 14 13 13 13 13 14 14 14 12 12 12 11 9 7 6 5 5 6 7 7 8 8 9 10 10 9 8 8 8 8 9 10 10 11 11 11 11 11 10 10 10 10 10 9 9 8 8 9 10 11 12 12 12 13 13 12 12 12 12 12
Wind_Direction
32 199 185 190 189 198 228 248 22 22 7 28 182 199 209 9 32 76 119 137 155 161 198 239 257 263 257 194 189 191 193 205 208 199 197 196 195 196 200 203 205 211 214 212 212 213 214 216 220 226 228 222 218 218 213 206 200 185 180 185 188 181 176 176 176 174 171 169 167 168 169 168 167 165 162 161 159 162 167 169 169 169 169 171 173 175
341 234 226 241 212 207 223 210 186 316 332 335 236 228 238 224 41 42 85 131 185 235 214 213 260 255 237 230 207 196 199 206 206 202 200 201 202 202 203 206 207 212 216 217 219 220 222 226 227 228 227 223 217 215 211 207 204 193 186 186 190 187 182 180 179 178 177 175 174 173 172 171 170 170 167 165 162 164 170 173 174 173 173 175 178 178
229 238 241 217 190 168 112 159 171 182 236 252 257 248 265 142 124 86 82 98 174 254 233 220 253 259 249 243 221 207 209 213 211 206 203 202 203 205 207 207 207 211 217 221 223 225 227 228 230 230 227 224 219 216 215 209 205 201 194 189 191 191 186 183 182 181 180 178 177 175 174 174 174 173 170 166 166 168 174 179 181 181 180 181 182 181
236 235 223 179 158 158 150 165 173 169 210 221 227 253 248 141 200 112 106 120 90 1 273 235 251 267 256 244 240 222 214 219 221 216 213 209 207 209 209 210 210 210 216 221 222 224 227 229 230 231 229 225 218 216 216 210 206 204 200 195 193 192 190 188 184 183 183 179 176 176 176 179 180 178 174 170 171 173 177 184 189 190 189 188 189 188
248 179 130 137 151 175 166 159 183 197 229 223 218 240 221 167 209 68 124 152 109 51 254 230 264 268 228 223 232 216 206 221 227 222 222 218 216 216 213 215 216 215 218 222 221 221 226 229 229 230 231 228 218 214 216 213 209 207 203 199 198 196 193 191 187 184 183 181 179 178 178 182 184 183 182 179 180 181 182 186 192 195 196 194 194 196
274 151 143 145 162 187 187 191 198 209 239 239 218 224 219 193 172 121 132 165 212 316 211 229 273 277 189 215 223 195 191 216 219 219 224 219 216 218 218 218 219 220 223 224 224 223 226 228 229 231 232 230 222 215 216 216 212 210 206 202 201 200 195 193 191 188 187 186 185 186 186 187 188 188 188 186 186 188 188 189 192 195 197 196 196 197
330 133 154 159 167 183 206 220 208 203 226 250 225 205 198 190 155 130 140 191 281 330 212 219 257 289 246 218 213 192 194 211 212 216 224 219 211 213 217 219 219 221 223 225 227 226 227 228 229 231 231 231 226 218 215 216 213 211 208 203 202 202 199 197 195 192 193 193 193 195 195 194 192 191 189 187 188 190 190 192 194 195 197 197 197 195
173 167 138 132 145 175 203 223 202 194 209 257 95 130 156 158 136 132 142 171 224 314 240 206 235 280 286 250 194 193 198 211 215 218 222 218 211 213 217 218 220 221 222 224 226 227 228 230 230 230 229 229 228 223 217 215 214 211 207 203 202 204 202 200 201 199 199 200 200 199 197 196 194 191 187 186 186 186 188 191 195 198 200 200 199 196
166 200 137 142 142 186 209 232 187 183 186 56 103 105 119 128 123 128 138 137 149 261 249 196 207 267 270 273 106 189 202 215 220 220 221 216 211 214 219 219 221 224 225 225 227 228 228 230 231 231 229 228 228 226 220 217 216 211 206 203 202 204 203 202 204 205 205 205 204 202 198 195 193 188 183 184 185 185 188 193 197 201 204 205 205 202
247 250 178 171 171 250 237 221 187 182 151 105 108 98 100 107 106 114 130 147 173 259 257 170 176 243 282 270 107 187 209 228 231 226 225 220 214 216 220 221 222 225 227 227 229 230 230 230 231 232 232 230 229 228 223 219 217 212 207 205 203 203 203 203 204 207 209 209 206 204 201 196 192 187 184 186 190 192 195 199 201 204 207 210 212 212
289 233 202 193 256 303 288 115 183 174 140 129 114 101 101 94 87 90 83 141 204 256 283 165 182 208 282 344 60 174 247 285 279 255 233 222 218 218 219 221 222 223 226 228 228 230 232 232 232 232 232 231 230 230 226 220 218 215 209 207 206 203 203 203 204 207 210 211 209 207 204 200 196 192 191 193 195 199 202 202 204 208 211 215 218 220
347 120 195 263 337 337 314 97 72 159 152 141 127 125 118 79 72 97 100 215 245 276 29 151 187 203 239 292 32 355 326 327 314 292 256 226 218 216 215 220 221 222 225 227 227 229 231 230 230 230 230 229 229 230 228 223 219 216 213 210 207 204 201 201 203 207 211 214 213 212 210 208 203 200 200 200 201 205 206 204 204 207 212 218 221 224
70 96 344 299 113 10 338 114 93 168 185 181 168 162 155 85 98 123 212 251 264 304 33 97 182 210 250 273 18 359 340 336 323 305 284 244 223 213 210 216 219 220 223 225 226 227 228 228 228 228 228 227 228 228 227 225 222 218 215 213 210 205 200 199 200 205 211 216 217 217 217 214 210 208 206 206 207 209 210 208 208 210 214 220 225 229
149 160 360 0 92 7 346 149 116 163 198 205 183 181 190 164 150 159 159 283 279 306 12 327 192 227 263 162 23 358 345 338 330 318 293 252 227 214 208 212 216 217 220 222 223 225 226 228 229 228 228 227 227 226 226 225 223 220 216 214 213 209 204 202 202 204 209 215 219 220 222 221 217 214 210 209 212 214 214 214 215 218 223 228 233 235
285 160 21 12 343 352 5 50 29 161 187 200 200 210 210 198 218 198 166 199 257 311 340 292 188 253 288 120 27 356 353 349 344 340 320 253 224 216 208 205 209 213 216 218 220 222 225 227 228 229 230 229 227 226 226 225 223 222 218 216 216 213 209 207 206 207 210 214 217 220 223 225 225 222 218 215 216 218 220 221 224 227 232 238 242 242
330 52 10 337 295 327 358 24 347 188 168 155 187 219 222 229 231 147 116 131 134 261 287 218 209 296 53 125 6 356 360 2 358 357 356 296 215 204 198 198 204 209 212 214 216 219 222 224 226 229 231 229 227 226 227 226 225 224 221 217 217 216 214 212 211 212 214 215 217 219 221 224 227 228 227 224 221 222 224 227 232 235 238 243 248 247
343 78 351 320 294 11 4 3 23 14 186 166 173 195 166 353 177 122 107 93 101 240 268 199 245 312 86 156 0 358 1 8 6 5 12 11 190 184 187 198 207 210 210 212 216 219 221 222 223 226 230 229 227 227 228 228 228 227 224 221 219 219 218 217 217 217 218 218 219 219 220 222 225 228 230 230 227 226 227 230 235 239 240 241 246 249
297 127 44 334 332 17 0 326 90 32 9 193 154 122 123 116 58 91 118 86 94 258 276 255 266 333 356 304 355 356 357 6 7 7 14 22 63 179 186 195 206 212 214 217 220 221 221 222 222 224 228 229 229 229 230 231 232 231 229 226 223 222 221 220 220 220 221 222 222 221 221 221 223 226 228 230 231 231 231 232 235 237 238 238 242 245
297 264 96 24 303 332 346 294 133 40 31 48 97 78 146 195 134 115 165 149 146 237 288 280 280 3 13 341 339 344 353 0 3 10 13 21 31 40 123 177 201 209 215 222 224 224 224 224 224 226 227 229 231 232 233 233 233 233 232 229 227 227 226 224 223 224 225 225 225 226 224 223 224 225 227 228 230 233 234 234 233 234 235 237 240 240
8 310 130 87 311 306 341 8 18 41 48 74 104 64 13 330 177 136 141 135 139 153 288 283 276 184 69 342 323 333 356 356 355 11 16 21 28 32 56 105 182 204 215 225 227 226 225 225 227 228 229 231 232 233 234 234 233 234 234 231 230 230 229 229 227 228 230 229 228 229 227 225 225 226 228 229 229 231 234 235 233 232 233 235 237 238
341 346 330 8 336 278 344 49 44 37 46 72 79 54 43 38 347 154 146 116 127 146 191 269 274 230 92 337 322 339 358 356 350 359 7 12 8 1 20 124 168 193 209 221 228 229 227 226 227 227 228 231 232 231 232 233 233 234 235 234 233 232 231 231 230 231 233 233 232 232 229 227 227 227 228 230 230 231 233 234 233 233 234 234 235 236
270 12 339 329 348 131 89 59 41 6 356 38 67 63 56 67 139 193 188 149 123 156 156 251 270 252 86 327 334 350 352 3 4 358 354 354 344 336 336 335 179 193 207 216 224 229 229 228 229 227 226 228 229 229 230 232 232 234 235 235 235 235 235 234 234 235 235 236 237 235 231 229 229 228 229 230 231 232 233 233 232 232 234 235 234 233
103 90 107 326 333 51 30 314 312 297 291 43 67 91 107 89 106 217 192 153 157 174 123 176 271 248 67 357 359 3 356 16 24 13 357 345 334 330 332 333 324 228 224 223 225 228 228 227 226 226 225 225 226 228 230 231 233 233 234 235 235 235 236 236 236 237 238 239 240 238 234 231 230 230 230 231 232 233 235 235 232 232 233 235 236 233
151 84 76 74 347 287 272 257 186 139 211 116 71 88 141 103 100 81 93 118 176 177 132 179 236 203 48 15 6 6 10 31 39 26 1 352 352 348 339 334 357 352 221 217 218 221 220 221 222 222 224 225 225 229 231 231 232 234 234 236 237 238 238 238 238 239 240 241 243 242 239 236 233 232 230 231 233 234 236 237 235 233 232 233 236 236
179 51 187 147 164 211 239 226 177 146 197 196 70 90 174 136 148 135 101 118 213 90 102 222 223 134 52 7 351 0 24 43 48 38 11 3 7 4 355 345 8 50 152 193 198 198 198 203 209 213 220 227 227 228 231 233 235 236 237 239 240 241 241 242 241 240 240 241 243 244 242 241 239 237 233 232 234 236 237 238 238 237 233 232 234 235
166 128 186 218 221 199 200 226 212 164 175 158 47 322 194 141 142 134 115 157 181 106 57 255 219 104 86 27 11 13 21 38 50 50 35 16 8 8 13 13 23 63 99 146 175 190 198 196 193 197 203 218 228 229 234 240 241 241 242 243 245 245 244 244 243 243 242 243 246 248 246 245 244 242 240 237 236 237 238 238 239 238 236 233 232 233
124 116 171 235 251 224 257 283 256 177 199 175 93 24 36 101 115 117 132 160 142 132 169 266 112 125 89 33 24 13 6 22 44 47 42 33 27 32 38 40 47 68 86 98 124 162 190 201 205 211 215 226 242 244 241 244 246 248 250 251 252 251 249 247 245 244 244 246 248 250 250 249 248 246 245 243 241 240 240 239 239 240 238 236 233 233
138 133 142 190 270 295 300 301 286 297 301 239 140 64 70 87 98 96 105 134 136 168 169 119 337 159 96 38 12 355 353 14 38 38 34 33 41 49 53 55 58 63 70 75 80 92 111 148 186 212 222 229 239 244 242 239 241 247 252 255 257 255 253 252 250 247 246 246 246 247 248 249 249 248 248 247 246 243 242 242 241 240 240 238 236 236
144 120 129 205 312 335 329 322 318 335 39 48 20 14 42 79 93 90 96 134 143 102 59 49 12 100 102 44 5 349 349 15 31 29 27 30 35 44 51 56 60 61 61 63 64 65 64 66 80 185 222 229 235 241 244 243 243 245 246 249 252 254 254 254 252 250 249 247 246 247 249 248 248 250 250 248 247 246 245 244 242 242 241 240 238 238
178 112 113 220 310 12 13 6 14 107 113 82 49 23 11 56 95 101 106 116 109 84 63 26 342 304 133 40 357 358 11 25 25 18 24 33 29 32 44 54 59 62 61 61 61 60 60 57 55 49 356 270 248 246 248 250 251 250 247 245 247 250 252 252 253 254 252 249 249 251 251 249 248 250 251 250 248 246 244 243 243 242 241 240 238 238
270 110 102 182 224 26 24 21 46 66 101 93 72 58 44 58 92 104 113 118 109 101 88 27 326 294 214 57 31 29 34 34 19 6 15 27 23 25 40 52 58 61 60 57 55 54 54 52 50 46 32 14 335 273 263 261 259 257 254 248 245 248 250 251 253 254 253 252 253 254 252 250 250 252 253 252 250 246 243 242 243 243 242 239 238 238
306 131 121 182 233 31 31 21 40 83 123 210 102 79 72 66 76 87 112 134 142 135 121 92 323 288 303 29 52 47 46 43 22 4 3 11 19 30 39 46 52 54 53 52 51 51 50 47 42 37 28 19 10 352 320 289 278 280 279 269 257 254 253 252 252 253 255 255 255 255 255 253 253 255 256 256 254 248 242 238 239 243 243 240 239 239
167 156 140 208 276 50 48 26 35 95 227 234 230 62 77 101 113 103 86 111 135 140 137 137 190 247 288 303 68 58 52 47 27 6 1 4 15 31 38 42 50 53 52 52 52 52 52 49 45 39 32 24 15 9 2 346 321 305 296 286 276 267 260 256 254 253 255 256 255 255 255 253 253 253 254 257 257 250 243 236 235 240 245 244 242 242
155 138 128 249 302 97 72 16 305 231 240 239 27 326 257 149 134 160 139 137 155 156 138 122 156 182 268 310 49 68 68 59 34 13 14 17 19 30 41 48 52 54 53 53 54 53 51 50 47 44 41 35 26 17 12 7 354 330 307 290 278 273 269 266 265 263 260 258 257 256 256 256 255 251 249 252 254 253 249 241 233 235 242 245 245 244
148 122 112 100 356 102 96 307 222 225 280 346 349 290 222 231 300 281 199 170 189 182 148 135 145 159 168 16 53 79 88 80 56 38 35 38 38 42 48 51 51 50 49 49 50 50 48 47 46 44 43 42 40 36 29 19 2 334 314 296 281 279 278 275 275 275 271 264 260 259 258 256 254 250 245 245 248 253 254 247 239 236 239 243 245 245
156 147 120 92 64 117 155 192 224 303 319 295 277 217 188 216 232 234 230 203 204 202 165 149 148 145 122 68 65 85 91 86 71 53 39 44 53 53 53 53 50 48 46 44 43 44 44 43 42 42 42 41 43 43 36 26 13 357 338 318 304 299 298 297 296 291 281 270 262 258 256 254 251 247 242 240 242 246 248 245 239 235 235 238 241 244
149 152 136 125 132 144 179 199 262 314 297 249 220 178 187 204 154 164 232 194 192 199 182 157 152 149 134 112 108 105 77 66 76 54 36 43 59 58 54 52 51 49 47 44 42 41 41 40 40 42 44 44 43 42 37 31 24 23 25 20 8 349 326 323 336 341 317 284 264 252 247 245 242 237 231 228 230 235 240 241 236 231 232 235 239 244
115 157 167 179 191 154 174 200 240 281 281 209 143 136 158 161 146 167 204 158 176 184 175 163 159 154 146 144 147 140 83 108 146 92 45 58 70 66 56 52 52 53 50 46 44 40 37 37 38 42 48 49 46 43 41 39 39 45 53 56 53 50 47 44 51 59 53 16 260 213 202 206 208 204 202 203 209 218 231 240 239 240 244 244 241 242
86 77 116 144 148 164 184 206 221 237 296 43 127 139 156 168 166 192 235 352 165 181 172 164 164 160 156 157 157 156 170 179 180 182 139 91 86 78 63 57 58 56 51 47 43 38 34 34 38 45 51 53 50 47 44 45 49 58 64 66 67 65 62 58 58 63 67 66 72 88 98 107 116 132 152 166 185 206 221 232 236 242 252 252 244 238
96 86 122 163 156 166 186 213 241 237 281 9 108 147 160 175 186 231 266 333 152 177 170 163 167 165 160 161 164 175 194 186 154 169 154 111 97 91 76 67 61 54 51 47 42 37 33 34 39 46 49 51 50 49 46 46 52 61 65 66 65 64 60 56 54 56 59 60 63 72 81 88 94 103 114 123 136 184 233 254 257 258 261 260 254 246
100 72 16 189 161 167 197 220 263 258 218 133 173 159 155 166 200 250 287 105 141 164 163 159 165 166 165 168 172 183 199 191 154 153 143 114 101 100 87 73 61 52 49 47 44 41 37 37 41 45 47 48 49 50 49 49 56 64 66 65 62 59 56 54 54 55 59 61 62 66 71 77 81 83 84 85 87 90 305 303 293 278 269 265 261 252
147 130 108 179 159 147 197 226 257 277 175 134 138 148 156 176 229 238 109 125 146 155 149 151 156 159 169 178 178 178 182 178 161 148 137 118 105 101 91 76 61 52 51 51 53 53 49 46 48 48 47 47 47 48 48 49 56 64 65 63 61 58 54 51 48 49 53 57 59 60 62 64 67 69 71 71 70 67 60 51 41 8 297 276 269 261
176 180 167 164 156 134 168 206 230 286 172 151 140 141 178 233 317 127 135 138 147 149 143 146 151 157 168 174 175 171 165 160 156 148 138 126 112 101 91 80 71 69 68 66 63 60 56 54 53 50 48 47 45 47 48 48 52 58 61 61 59 55 51 47 42 41 44 48 50 50 50 50 52 56 62 67 69 68 66 64 60 49 21 333 294 272
185 197 186 181 187 197 202 187 203 355 153 163 155 119 178 182 133 140 151 148 149 153 149 143 142 151 163 162 160 161 159 154 153 149 141 133 122 104 96 92 88 83 78 70 65 61 57 54 53 51 50 49 47 47 48 47 49 53 56 56 54 52 49 45 40 40 42 43 43 43 42 41 39 39 41 44 48 52 55 55 53 48 39 26 356 246
195 186 193 179 184 216 292 178 40 20 160 180 190 68 149 157 144 145 157 155 154 157 150 141 136 134 144 150 150 153 156 153 149 146 143 137 126 114 109 104 96 88 79 73 68 64 59 55 54 54 52 50 49 48 48 47 47 48 49 48 46 46 45 42 40 42 43 43 43 42 41 39 38 36 33 32 32 35 38 40 41 40 37 32 30 36
64 151 162 128 153 203 278 258 222 46 158 188 194 151 146 148 141 146 160 161 155 149 141 137 132 127 133 143 147 151 154 151 146 146 144 135 124 120 115 106 97 90 83 78 73 67 63 61 59 59 56 53 51 49 47 46 44 44 45 43 43 44 42 39 41 44 45 45 45 43 40 38 38 37 36 35 35 35 36 38 39 38 32 28 32 42
164 173 162 112 154 177 178 165 164 119 129 157 158 148 145 144 142 147 157 158 151 142 136 132 127 126 132 140 145 149 150 150 149 146 141 134 127 124 117 107 99 92 85 81 78 74 70 66 63 61 57 53 50 48 46 45 44 43 42 40 41 41 40 39 43 47 47 46 44 41 40 39 38 38 40 42 43 43 42 41 41 39 37 38 43 47
170 174 170 144 159 169 105 124 141 128 146 159 157 153 153 152 148 146 150 154 150 140 134 133 128 128 133 139 144 148 148 150 153 148 140 139 137 129 119 108 100 92 85 83 84 81 76 69 63 58 53 49 47 45 44 44 43 43 43 41 40 39 38 40 44 46 46 45 44 44 42 41 41 41 42 43 44 44 45 45 43 38 38 43 46 47
146 162 166 140 145 138 17 165 168 146 171 185 177 166 162 157 149 148 150 151 150 142 135 133 128 127 133 140 147 151 150 150 152 150 146 148 147 139 126 109 98 92 87 86 88 85 78 70 63 58 53 49 46 44 44 43 42 41 42 43 45 45 42 41 42 43 43 43 45 46 45 43 42 41 41 42 43 44 46 48 46 40 37 39 42 44
150 154 147 141 166 189 181 173 173 167 185 195 187 175 168 161 150 149 151 151 153 152 144 139 136 132 133 138 143 148 148 146 147 150 151 153 153 151 143 123 105 101 100 100 100 91 77 67 61 56 52 49 45 43 44 44 43 43 42 42 45 49 51 49 45 42 41 42 44 45 44 41 39 37 35 35 38 42 45 47 49 46 42 40 40 40
182 168 168 175 183 199 181 179 180 178 168 184 183 175 169 165 155 148 149 149 152 155 153 151 150 146 142 141 142 146 146 144 143 145 148 152 153 153 151 141 128 121 118 118 115 96 72 61 55 50 48 48 45 41 40 40 40 42 43 43 43 45 47 49 47 44 40 39 39 40 38 33 29 27 25 26 31 38 41 42 46 51 50 46 43 39
Height
1520 1523 1525 1525 1526 1525 1525 1524 1526 1527 1527 1527 1528 1530 1531 1532 1533 1532 1532 1531 1529 1534 1538 1536 1536 1536 1533 1532 1532 1535 1537 1538 1539 1539 1540 1541 1542 1543 1545 1546 1548 1549 1550 1552 1553 1554 1556 1557 1558 1559 1561 1563 1564 1564 1565 1566 1568 1569 1571 1572 1573 1574 1576 1577 1578 1578 1579 1581 1582 1584 1585 1586 1587 1588 1589 1590 1591 1592 1593 1595 1595 1596 1597 1598 1599 1600
1521 1525 1525 1524 1523 1523 1523 1524 1526 1526 1527 1527 1528 1530 1531 1532 1533 1532 1532 1532 1531 1534 1537 1537 1536 1534 1532 1531 1531 1533 1535 1535 1536 1538 1539 1540 1542 1543 1544 1545 1547 1549 1550 1551 1553 1554 1555 1556 1557 1559 1560 1562 1563 1564 1565 1566 1567 1569 1570 1572 1573 1574 1575 1577 1578 1579 1579 1581 1582 1584 1585 1586 1587 1589 1590 1591 1592 1593 1594 1595 1596 1597 1598 1599 1600 1601
1524 1524 1522 1521 1521 1523 1524 1524 1525 1526 1527 1528 1528 1529 1531 1532 1532 1534 1534 1533 1532 1535 1536 1537 1537 1533 1530 1530 1530 1531 1532 1533 1535 1536 1537 1539 1540 1542 1543 1544 1546 1548 1549 1550 1552 1553 1554 1555 1556 1558 1559 1561 1563 1564 1565 1566 1567 1568 1570 1571 1572 1574 1575 1576 1578 1579 1580 1581 1582 1584 1585 1587 1588 1589 1590 1591 1592 1593 1594 1595 1596 1597 1598 1599 1600 1601
1526 1522 1518 1518 1520 1522 1524 1525 1525 1526 1526 1526 1527 1529 1531 1531 1532 1535 1537 1536 1534 1535 1536 1537 1537 1533 1530 1530 1529 1529 1530 1531 1534 1535 1536 1538 1538 1539 1541 1543 1544 1546 1548 1549 1551 1552 1553 1554 1556 1557 1558 1560 1562 1563 1565 1565 1566 1567 1569 1570 1572 1573 1575 1576 1577 1579 1580 1581 1583 1584 1586 1587 1588 1589 1590 1591 1592 1593 1594 1595 1596 1597 1598 1599 1600 1601
1522 1518 1516 1518 1520 1521 1524 1525 1525 1525 1525 1525 1526 1527 1529 1531 1530 1532 1537 1537 1536 1537 1536 1537 1540 1534 1529 1530 1528 1526 1528 1530 1532 1534 1535 1536 1537 1539 1540 1541 1543 1545 1546 1548 1549 1551 1552 1553 1554 1556 1557 1559 1561 1563 1564 1565 1566 1567 1568 1570 1571 1573 1574 1576 1577 1578 1580 1581 1582 1583 1585 1586 1587 1589 1590 1591 1592 1593 1594 1595 1596 1597 1598 1599 1600 1601
1518 1517 1517 1520 1521 1522 1523 1524 1523 1523 1524 1524 1523 1522 1524 1527 1528 1532 1536 1536 1541 1544 1537 1537 1546 1538 1526 1527 1526 1524 1527 1528 1529 1531 1532 1534 1535 1537 1539 1540 1541 1543 1545 1547 1548 1550 1551 1552 1553 1554 1556 1558 1560 1561 1563 1564 1565 1566 1568 1569 1570 1572 1574 1575 1576 1578 1579 1581 1582 1583 1584 1585 1586 1588 1589 1590 1591 1592 1594 1595 1596 1597 1597 1599 1600 1600
1517 1517 1517 1519 1521 1522 1523 1523 1522 1521 1524 1525 1520 1517 1521 1524 1527 1533 1534 1535 1542 1545 1536 1535 1546 1542 1529 1525 1522 1522 1525 1525 1526 1528 1528 1530 1533 1534 1536 1537 1539 1541 1543 1545 1547 1548 1550 1550 1552 1553 1554 1556 1558 1560 1562 1564 1565 1566 1567 1568 1570 1571 1573 1575 1576 1577 1579 1580 1581 1582 1584 1585 1586 1587 1588 1590 1591 1592 1593 1595 1595 1596 1597 1598 1599 1600
1515 1516 1518 1518 1520 1522 1522 1521 1519 1518 1521 1523 1517 1516 1521 1524 1529 1532 1532 1535 1539 1539 1537 1535 1539 1545 1537 1524 1519 1520 1524 1525 1524 1524 1524 1526 1530 1531 1534 1535 1537 1539 1541 1543 1544 1546 1548 1549 1550 1551 1553 1555 1557 1559 1561 1563 1564 1565 1567 1568 1569 1571 1572 1574 1575 1577 1578 1579 1580 1582 1583 1585 1586 1587 1589 1590 1591 1592 1593 1594 1595 1596 1597 1598 1599 1600
1514 1515 1517 1518 1519 1521 1518 1516 1515 1515 1520 1521 1516 1516 1520 1524 1528 1531 1532 1537 1538 1539 1543 1538 1538 1548 1539 1521 1519 1521 1523 1525 1522 1520 1521 1522 1526 1528 1530 1533 1534 1536 1538 1540 1542 1544 1546 1547 1548 1550 1551 1553 1555 1557 1559 1561 1563 1564 1566 1567 1568 1570 1571 1573 1574 1576 1577 1579 1580 1581 1582 1584 1585 1587 1588 1589 1590 1592 1593 1594 1595 1596 1597 1598 1598 1599
1513 1514 1514 1514 1517 1516 1513 1513 1513 1513 1519 1520 1515 1516 1521 1525 1528 1531 1534 1537 1541 1543 1543 1538 1539 1549 1539 1519 1520 1526 1525 1524 1520 1518 1519 1520 1523 1524 1526 1530 1532 1534 1536 1538 1540 1542 1543 1545 1546 1548 1550 1552 1554 1555 1558 1560 1562 1564 1565 1567 1568 1569 1570 1571 1573 1575 1576 1578 1579 1581 1582 1583 1585 1586 1587 1589 1590 1591 1592 1593 1594 1595 1596 1597 1598 1599
1512 1512 1512 1512 1514 1513 1510 1513 1513 1513 1516 1516 1516 1519 1525 1530 1531 1534 1536 1538 1547 1547 1538 1532 1532 1542 1542 1525 1521 1526 1525 1522 1520 1519 1518 1518 1520 1521 1523 1526 1528 1531 1533 1535 1537 1539 1541 1543 1545 1547 1549 1551 1553 1554 1556 1558 1560 1562 1564 1566 1567 1568 1569 1570 1572 1574 1575 1577 1578 1579 1581 1582 1584 1585 1587 1588 1589 1590 1591 1592 1593 1594 1596 1597 1597 1598
1512 1512 1512 1511 1511 1511 1510 1512 1514 1514 1513 1514 1518 1520 1528 1538 1538 1541 1543 1543 1550 1547 1536 1531 1528 1538 1545 1530 1522 1523 1520 1518 1519 1518 1516 1514 1515 1517 1519 1522 1524 1528 1530 1532 1535 1536 1539 1541 1543 1545 1547 1549 1551 1552 1555 1557 1559 1561 1562 1564 1566 1567 1568 1569 1571 1572 1574 1575 1577 1578 1580 1581 1583 1584 1586 1587 1588 1589 1590 1592 1593 1594 1595 1596 1597 1598
1513 1513 1511 1510 1510 1510 1511 1513 1517 1518 1515 1516 1519 1519 1530 1546 1549 1551 1552 1548 1547 1543 1537 1532 1532 1540 1539 1525 1521 1522 1518 1517 1517 1515 1513 1511 1511 1512 1514 1517 1520 1524 1526 1529 1532 1534 1536 1539 1540 1543 1545 1547 1549 1551 1553 1555 1557 1559 1561 1563 1564 1566 1567 1568 1569 1571 1572 1573 1575 1577 1578 1580 1582 1583 1584 1586 1587 1589 1590 1591 1592 1593 1594 1595 1596 1597
1517 1514 1511 1511 1511 1510 1510 1512 1517 1520 1517 1517 1519 1520 1529 1543 1554 1561 1561 1556 1550 1544 1538 1533 1536 1539 1531 1522 1522 1521 1518 1517 1514 1513 1511 1507 1507 1508 1509 1513 1517 1520 1523 1526 1528 1531 1533 1535 1538 1540 1542 1545 1547 1549 1551 1553 1555 1557 1559 1561 1563 1564 1566 1567 1568 1569 1571 1572 1573 1575 1577 1579 1580 1582 1583 1584 1586 1587 1589 1590 1591 1592 1593 1594 1595 1596
1527 1525 1517 1514 1514 1512 1511 1512 1514 1514 1515 1515 1514 1516 1522 1527 1538 1550 1555 1556 1555 1552 1545 1541 1540 1537 1530 1525 1521 1518 1517 1516 1513 1510 1506 1503 1504 1506 1508 1511 1515 1518 1521 1523 1526 1529 1531 1533 1536 1538 1540 1543 1545 1547 1550 1551 1553 1555 1557 1559 1561 1563 1564 1565 1567 1568 1569 1571 1572 1574 1575 1577 1579 1580 1582 1583 1585 1586 1588 1589 1590 1591 1592 1593 1594 1595
1532 1530 1518 1514 1515 1512 1512 1512 1511 1512 1515 1516 1513 1515 1520 1518 1520 1532 1541 1541 1545 1553 1550 1544 1537 1526 1522 1523 1517 1515 1516 1514 1512 1509 1504 1503 1503 1505 1508 1511 1513 1516 1519 1522 1524 1526 1529 1531 1534 1536 1538 1541 1543 1546 1547 1549 1551 1553 1555 1557 1559 1561 1562 1563 1565 1566 1568 1569 1571 1572 1574 1575 1577 1579 1580 1581 1583 1585 1586 1587 1588 1590 1591 1592 1593 1594
1531 1528 1518 1515 1514 1511 1512 1512 1510 1513 1515 1515 1515 1517 1517 1513 1514 1527 1540 1537 1539 1551 1547 1538 1534 1524 1520 1523 1518 1516 1517 1514 1514 1510 1506 1506 1504 1505 1508 1510 1512 1515 1517 1520 1522 1525 1527 1530 1532 1534 1536 1539 1541 1543 1545 1547 1549 1551 1553 1555 1557 1559 1560 1562 1563 1565 1566 1568 1569 1571 1572 1574 1575 1577 1579 1580 1581 1583 1584 1586 1587 1588 1589 1590 1591 1592
1528 1527 1520 1518 1517 1512 1511 1511 1509 1510 1511 1512 1516 1516 1514 1514 1515 1523 1541 1547 1550 1556 1545 1533 1536 1534 1532 1531 1523 1519 1521 1519 1517 1514 1510 1509 1507 1507 1509 1510 1513 1515 1517 1519 1521 1524 1526 1528 1531 1533 1534 1537 1539 1541 1543 1545 1547 1549 1551 1553 1555 1557 1558 1560 1561 1563 1564 1566 1567 1569 1570 1572 1574 1575 1577 1578 1580 1581 1583 1584 1585 1586 1587 1589 1590 1591
1525 1527 1522 1518 1519 1515 1509 1511 1513 1510 1509 1510 1513 1514 1515 1522 1525 1527 1540 1551 1556 1561 1551 1535 1534 1539 1541 1538 1532 1528 1526 1523 1520 1518 1515 1513 1512 1511 1511 1513 1515 1516 1519 1520 1521 1524 1525 1527 1529 1530 1533 1534 1536 1539 1541 1543 1546 1547 1549 1551 1553 1555 1556 1558 1560 1561 1563 1564 1566 1567 1569 1570 1572 1574 1575 1577 1578 1580 1581 1582 1583 1585 1586 1587 1588 1589
1524 1529 1527 1519 1517 1517 1512 1514 1520 1518 1513 1511 1512 1514 1515 1520 1526 1527 1532 1540 1552 1564 1563 1547 1536 1538 1541 1539 1537 1534 1528 1526 1524 1521 1519 1517 1516 1515 1514 1515 1516 1517 1519 1520 1521 1523 1524 1526 1527 1529 1531 1533 1534 1537 1539 1541 1544 1545 1547 1549 1551 1553 1555 1557 1558 1560 1561 1563 1564 1566 1567 1569 1570 1572 1574 1575 1577 1578 1579 1581 1582 1583 1584 1585 1586 1587
1524 1529 1531 1522 1516 1519 1520 1520 1523 1524 1519 1516 1518 1521 1522 1521 1523 1527 1528 1531 1541 1556 1565 1559 1545 1537 1536 1535 1534 1532 1528 1527 1525 1523 1521 1520 1520 1519 1516 1515 1515 1515 1516 1518 1519 1521 1523 1525 1526 1528 1530 1532 1534 1536 1538 1539 1541 1543 1545 1547 1549 1551 1553 1555 1556 1558 1559 1561 1562 1564 1565 1567 1568 1570 1571 1573 1574 1576 1577 1579 1580 1581 1583 1584 1585 1586
1524 1527 1531 1527 1522 1523 1524 1522 1522 1524 1522 1521 1522 1525 1526 1525 1525 1532 1536 1532 1534 1542 1550 1554 1549 1537 1533 1532 1530 1529 1528 1526 1525 1524 1523 1523 1523 1522 1519 1517 1516 1514 1514 1515 1516 1519 1521 1523 1525 1527 1529 1531 1532 1534 1536 1538 1539 1541 1543 1545 1547 1549 1551 1553 1555 1556 1558 1559 1560 1561 1563 1565 1566 1568 1569 1571 1572 1574 1575 1577 1578 1579 1581 1582 1583 1584
1523 1526 1529 1530 1528 1526 1525 1524 1523 1525 1523 1521 1523 1524 1524 1525 1526 1532 1538 1535 1535 1538 1540 1546 1548 1539 1531 1529 1528 1528 1527 1525 1526 1525 1525 1525 1525 1523 1520 1519 1518 1516 1515 1515 1515 1516 1519 1521 1523 1525 1527 1529 1531 1532 1534 1536 1537 1539 1541 1542 1545 1546 1549 1551 1553 1554 1556 1557 1559 1560 1562 1563 1564 1565 1567 1568 1570 1571 1573 1575 1576 1577 1579 1580 1581 1582
1523 1528 1532 1533 1531 1525 1522 1521 1521 1523 1524 1523 1524 1524 1523 1524 1523 1525 1531 1533 1534 1539 1540 1545 1548 1540 1531 1529 1529 1529 1528 1526 1526 1526 1525 1525 1524 1522 1521 1520 1519 1517 1516 1516 1516 1516 1517 1519 1521 1524 1526 1527 1529 1531 1533 1534 1536 1537 1539 1540 1542 1544 1546 1548 1550 1552 1554 1556 1558 1559 1561 1561 1562 1564 1565 1566 1568 1569 1571 1573 1574 1575 1576 1578 1579 1580
1525 1531 1534 1537 1540 1538 1532 1529 1526 1525 1525 1525 1526 1526 1524 1524 1524 1525 1529 1534 1538 1542 1542 1541 1543 1540 1533 1531 1530 1529 1527 1526 1526 1526 1524 1523 1523 1523 1522 1521 1520 1519 1518 1517 1517 1517 1518 1518 1520 1522 1525 1527 1529 1530 1531 1532 1534 1535 1537 1538 1540 1541 1543 1545 1547 1550 1552 1554 1556 1558 1559 1560 1561 1562 1563 1564 1566 1567 1569 1570 1571 1573 1574 1575 1577 1578
1525 1532 1533 1535 1543 1547 1545 1540 1532 1527 1527 1527 1527 1528 1525 1523 1522 1523 1528 1534 1540 1544 1543 1540 1540 1541 1535 1531 1531 1530 1528 1527 1526 1527 1527 1525 1526 1526 1523 1522 1521 1520 1520 1519 1517 1518 1518 1519 1520 1522 1525 1527 1528 1530 1531 1532 1533 1534 1535 1537 1538 1539 1541 1542 1544 1547 1549 1552 1554 1555 1557 1558 1559 1560 1561 1563 1564 1565 1567 1568 1569 1570 1571 1573 1574 1575
1526 1531 1532 1532 1534 1536 1535 1532 1528 1527 1527 1528 1528 1528 1526 1522 1520 1520 1524 1532 1536 1539 1542 1540 1538 1539 1537 1534 1533 1532 1531 1529 1527 1528 1529 1529 1528 1527 1525 1523 1522 1521 1521 1520 1518 1518 1519 1520 1521 1523 1525 1526 1528 1529 1530 1531 1531 1532 1533 1535 1536 1538 1539 1540 1542 1544 1547 1550 1551 1552 1553 1556 1557 1558 1559 1560 1562 1563 1564 1566 1567 1568 1569 1571 1572 1573
1524 1529 1531 1530 1529 1528 1528 1528 1527 1527 1528 1528 1528 1527 1525 1522 1519 1521 1526 1531 1533 1536 1541 1540 1537 1538 1539 1535 1534 1535 1533 1530 1528 1529 1531 1531 1529 1528 1526 1524 1523 1522 1521 1521 1520 1519 1520 1521 1522 1523 1525 1526 1527 1528 1528 1529 1530 1530 1531 1532 1534 1535 1536 1537 1539 1541 1543 1546 1547 1548 1549 1552 1554 1555 1556 1557 1559 1560 1562 1563 1565 1566 1567 1569 1569 1570
1523 1528 1530 1530 1529 1528 1529 1529 1528 1529 1530 1530 1529 1529 1526 1522 1520 1524 1531 1532 1532 1537 1542 1542 1540 1540 1538 1534 1534 1535 1534 1531 1531 1531 1532 1532 1530 1529 1527 1525 1524 1523 1522 1522 1521 1520 1521 1522 1522 1523 1524 1525 1526 1526 1526 1527 1528 1528 1529 1530 1531 1532 1533 1535 1537 1538 1540 1542 1543 1544 1546 1548 1551 1552 1553 1554 1555 1557 1559 1560 1562 1563 1565 1566 1567 1568
1522 1527 1530 1530 1529 1528 1529 1529 1528 1529 1531 1532 1531 1531 1529 1526 1523 1526 1530 1531 1533 1540 1543 1545 1546 1542 1536 1535 1534 1533 1534 1533 1532 1534 1534 1533 1532 1530 1528 1527 1525 1524 1524 1523 1522 1521 1522 1522 1523 1524 1524 1524 1525 1525 1525 1525 1526 1526 1527 1528 1528 1529 1531 1533 1534 1535 1537 1538 1539 1541 1543 1546 1548 1548 1550 1551 1552 1553 1555 1556 1558 1560 1561 1563 1565 1566
1522 1527 1531 1530 1530 1530 1530 1530 1529 1530 1531 1532 1533 1531 1530 1530 1528 1528 1530 1531 1534 1540 1541 1546 1551 1544 1535 1534 1533 1532 1533 1534 1534 1536 1536 1534 1533 1531 1529 1528 1526 1525 1525 1524 1523 1523 1523 1523 1523 1523 1523 1523 1522 1522 1522 1523 1523 1523 1524 1525 1526 1527 1528 1530 1531 1533 1533 1535 1537 1538 1540 1543 1545 1546 1547 1548 1548 1550 1551 1552 1554 1556 1558 1560 1561 1563
1521 1527 1530 1529 1531 1533 1532 1533 1532 1530 1531 1532 1532 1532 1532 1532 1531 1530 1530 1529 1531 1536 1542 1549 1553 1547 1537 1535 1534 1532 1533 1535 1537 1538 1537 1536 1534 1533 1531 1529 1528 1526 1526 1525 1525 1524 1524 1523 1523 1523 1523 1522 1521 1521 1520 1520 1520 1521 1522 1522 1523 1524 1526 1527 1529 1530 1530 1532 1533 1534 1536 1539 1541 1543 1544 1545 1546 1547 1548 1549 1550 1552 1554 1556 1558 1559
1522 1524 1527 1530 1532 1535 1536 1535 1532 1532 1536 1536 1532 1531 1533 1533 1532 1532 1531 1530 1529 1533 1541 1545 1545 1542 1540 1537 1534 1533 1534 1536 1539 1540 1539 1538 1535 1534 1532 1531 1529 1529 1528 1527 1526 1525 1525 1524 1524 1523 1522 1522 1521 1519 1519 1518 1519 1519 1520 1521 1522 1523 1523 1524 1525 1527 1528 1529 1530 1530 1532 1534 1536 1538 1540 1541 1543 1545 1545 1546 1547 1549 1551 1553 1555 1557
1523 1522 1528 1531 1532 1537 1539 1535 1533 1540 1544 1539 1532 1531 1532 1532 1532 1533 1533 1531 1530 1530 1534 1537 1536 1537 1540 1538 1533 1534 1536 1537 1540 1542 1541 1539 1537 1535 1534 1532 1531 1530 1529 1529 1528 1527 1526 1525 1524 1523 1522 1521 1520 1519 1518 1518 1518 1519 1519 1520 1520 1521 1521 1521 1522 1523 1525 1526 1526 1527 1529 1531 1532 1534 1536 1538 1541 1543 1544 1544 1544 1545 1548 1551 1552 1554
1522 1523 1530 1533 1533 1538 1540 1537 1543 1549 1542 1532 1530 1530 1531 1531 1531 1532 1532 1531 1531 1531 1530 1533 1535 1536 1538 1537 1534 1534 1537 1539 1541 1542 1542 1541 1539 1537 1535 1534 1533 1532 1530 1530 1529 1528 1528 1527 1525 1525 1524 1522 1522 1521 1520 1519 1518 1518 1518 1518 1519 1519 1519 1519 1520 1521 1522 1523 1523 1524 1525 1527 1528 1530 1532 1534 1537 1540 1542 1542 1542 1543 1546 1548 1550 1551
1520 1523 1529 1534 1538 1540 1541 1543 1548 1545 1534 1528 1530 1530 1530 1531 1531 1532 1533 1532 1531 1531 1530 1531 1533 1533 1534 1535 1534 1535 1538 1540 1540 1541 1542 1542 1541 1539 1537 1536 1534 1533 1532 1532 1531 1530 1529 1528 1528 1527 1526 1525 1524 1522 1521 1520 1520 1519 1519 1518 1518 1518 1518 1518 1518 1518 1518 1518 1518 1519 1520 1522 1524 1526 1528 1531 1533 1536 1539 1539 1540 1541 1543 1544 1546 1548
1517 1520 1524 1533 1540 1541 1541 1543 1542 1539 1534 1530 1529 1528 1528 1530 1529 1530 1533 1532 1529 1529 1531 1530 1531 1531 1533 1535 1535 1536 1538 1539 1540 1541 1542 1543 1542 1540 1539 1538 1536 1536 1535 1534 1533 1532 1531 1531 1530 1529 1528 1527 1526 1525 1524 1523 1522 1520 1519 1518 1518 1518 1518 1518 1518 1517 1517 1516 1515 1516 1517 1519 1521 1522 1524 1527 1531 1533 1536 1537 1537 1538 1540 1541 1543 1546
1517 1518 1519 1528 1538 1540 1540 1543 1544 1544 1540 1530 1526 1527 1526 1527 1527 1527 1530 1532 1530 1529 1530 1530 1530 1530 1532 1534 1536 1537 1538 1540 1541 1542 1543 1544 1543 1541 1540 1539 1538 1538 1537 1536 1536 1535 1534 1533 1532 1531 1531 1529 1528 1527 1527 1526 1524 1523 1521 1520 1520 1520 1519 1520 1520 1520 1519 1519 1518 1517 1517 1519 1520 1521 1522 1525 1528 1531 1533 1535 1536 1537 1538 1540 1542 1543
1518 1520 1519 1525 1536 1539 1538 1541 1545 1543 1536 1527 1525 1526 1526 1527 1527 1526 1530 1533 1531 1530 1530 1530 1530 1531 1532 1534 1536 1537 1539 1541 1542 1543 1543 1543 1543 1542 1541 1541 1540 1539 1539 1538 1537 1536 1536 1535 1534 1533 1532 1531 1530 1530 1529 1528 1527 1525 1523 1523 1522 1522 1522 1523 1523 1523 1523 1522 1521 1521 1520 1521 1521 1522 1522 1524 1526 1529 1531 1532 1534 1535 1537 1539 1541 1541
1519 1521 1522 1525 1532 1536 1536 1537 1538 1534 1528 1526 1525 1525 1526 1526 1525 1530 1538 1537 1531 1529 1530 1529 1530 1531 1531 1533 1535 1536 1538 1540 1540 1541 1542 1542 1542 1542 1542 1541 1541 1540 1540 1539 1538 1538 1537 1537 1536 1535 1533 1532 1532 1532 1531 1530 1529 1527 1526 1526 1525 1525 1525 1526 1526 1526 1525 1524 1524 1523 1523 1523 1523 1523 1523 1524 1525 1527 1529 1531 1532 1534 1536 1537 1539 1539
1523 1525 1527 1527 1528 1533 1535 1535 1533 1528 1524 1524 1525 1524 1526 1526 1529 1535 1538 1532 1528 1529 1530 1528 1529 1530 1531 1532 1534 1535 1537 1538 1539 1540 1541 1541 1541 1542 1542 1542 1542 1541 1540 1540 1539 1539 1538 1538 1537 1536 1535 1534 1534 1534 1533 1532 1531 1529 1529 1529 1528 1527 1528 1529 1529 1529 1528 1527 1527 1527 1526 1525 1525 1524 1524 1523 1524 1526 1528 1530 1532 1533 1535 1536 1537 1536
1526 1528 1531 1530 1530 1533 1534 1533 1533 1529 1523 1522 1524 1525 1525 1528 1532 1532 1528 1525 1527 1529 1528 1528 1529 1529 1530 1532 1532 1534 1536 1537 1538 1539 1540 1540 1541 1542 1542 1543 1542 1542 1541 1540 1540 1540 1539 1539 1538 1537 1537 1536 1536 1535 1535 1534 1533 1532 1531 1531 1531 1531 1532 1532 1532 1531 1531 1530 1530 1529 1529 1528 1527 1525 1525 1525 1526 1527 1529 1531 1532 1534 1535 1535 1535 1534
1519 1522 1527 1529 1531 1534 1535 1535 1537 1531 1523 1521 1524 1525 1526 1527 1527 1525 1524 1526 1528 1528 1528 1529 1528 1528 1530 1531 1532 1533 1535 1536 1537 1539 1539 1540 1541 1542 1542 1543 1542 1542 1542 1541 1541 1540 1540 1539 1539 1538 1538 1537 1537 1536 1536 1535 1534 1534 1533 1533 1533 1533 1534 1534 1533 1533 1532 1531 1530 1530 1530 1529 1528 1527 1527 1527 1528 1529 1530 1532 1533 1534 1534 1534 1533 1533
1515 1518 1523 1525 1526 1529 1532 1532 1529 1524 1520 1520 1522 1523 1524 1524 1523 1523 1525 1526 1527 1528 1529 1528 1528 1528 1529 1530 1532 1533 1534 1536 1537 1538 1539 1540 1541 1542 1543 1543 1543 1543 1543 1542 1542 1541 1540 1540 1539 1539 1538 1538 1537 1537 1536 1536 1536 1535 1534 1534 1535 1535 1535 1535 1535 1534 1532 1532 1531 1531 1530 1530 1529 1529 1529 1529 1529 1530 1531 1531 1532 1533 1533 1533 1533 1533
1514 1515 1517 1519 1520 1523 1523 1522 1520 1519 1520 1521 1521 1521 1522 1523 1524 1525 1525 1525 1526 1528 1528 1528 1528 1529 1529 1530 1532 1533 1534 1536 1537 1539 1540 1541 1542 1543 1543 1543 1544 1544 1544 1543 1543 1542 1542 1541 1541 1540 1539 1538 1538 1537 1537 1536 1536 1536 1535 1535 1536 1536 1536 1536 1535 1534 1534 1533 1533 1532 1532 1531 1531 1530 1530 1530 1530 1530 1530 1531 1532 1533 1533 1533 1533 1533
1514 1514 1514 1515 1519 1521 1520 1519 1520 1520 1521 1521 1522 1522 1523 1524 1525 1525 1525 1526 1526 1527 1527 1528 1529 1529 1529 1531 1532 1533 1535 1537 1538 1539 1541 1541 1542 1543 1544 1544 1545 1544 1544 1544 1544 1543 1544 1543 1543 1542 1540 1539 1539 1538 1537 1537 1537 1537 1536 1537 1537 1537 1536 1536 1536 1535 1535 1534 1534 1534 1533 1533 1533 1532 1532 1531 1531 1531 1531 1531 1532 1532 1532 1532 1532 1532
1514 1514 1514 1516 1518 1520 1519 1519 1519 1520 1520 1521 1522 1523 1523 1524 1525 1526 1526 1526 1526 1527 1528 1529 1529 1530 1531 1532 1533 1534 1536 1537 1539 1540 1541 1542 1543 1543 1544 1544 1545 1544 1545 1545 1545 1545 1546 1545 1544 1543 1542 1541 1540 1539 1539 1539 1538 1538 1537 1537 1538 1537 1537 1537 1537 1536 1536 1535 1535 1535 1534 1534 1534 1534 1533 1533 1533 1532 1532 1532 1532 1532 1532 1532 1532 1532
1512 1512 1514 1516 1518 1518 1518 1519 1519 1520 1521 1521 1522 1523 1524 1525 1525 1526 1526 1526 1527 1527 1528 1529 1530 1531 1531 1533 1534 1535 1537 1538 1539 1540 1541 1542 1543 1543 1544 1544 1544 1545 1545 1546 1546 1547 1547 1546 1545 1544 1543 1542 1541 1541 1540 1540 1539 1539 1539 1538 1538 1538 1538 1538 1537 1537 1536 1536 1536 1536 1535 1535 1535 1535 1535 1534 1534 1534 1533 1533 1533 1533 1532 1532 1533 1532
1509 1511 1513 1515 1517 1518 1518 1519 1520 1521 1521 1521 1522 1523 1524 1525 1525 1526 1527 1527 1527 1528 1529 1530 1531 1531 1532 1533 1535 1536 1537 1538 1539 1540 1541 1542 1543 1543 1544 1544 1544 1545 1546 1546 1547 1547 1547 1547 1546 1545 1544 1543 1543 1542 1542 1541 1541 1540 1539 1539 1539 1538 1538 1538 1538 1538 1537 1537 1537 1537 1536 1536 1536 1536 1536 1536 1535 1535 1535 1534 1534 1534 1533 1533 1533 1533
1508 1510 1512 1514 1516 1516 1514 1514 1516 1518 1518 1519 1520 1522 1523 1524 1525 1526 1527 1527 1528 1528 1529 1530 1531 1532 1533 1534 1535 1536 1537 1538 1539 1540 1541 1541 1542 1543 1544 1544 1545 1546 1546 1547 1547 1547 1547 1546 1546 1545 1545 1544 1544 1543 1543 1543 1542 1541 1541 1540 1540 1539 1539 1539 1539 1539 1538 1538 1538 1538 1538 1538 1538 1537 1537 1537 1537 1536 1536 1536 1536 1535 1535 1534 1534 1534
1504 1506 1508 1509 1510 1510 1508 1509 1512 1514 1514 1515 1518 1520 1522 1524 1525 1526 1527 1527 1528 1529 1529 1530 1531 1532 1533 1534 1535 1536 1537 1538 1539 1540 1540 1541 1542 1543 1544 1544 1545 1546 1547 1547 1547 1547 1547 1546 1546 1545 1545 1545 1544 1544 1544 1544 1543 1543 1542 1542 1541 1540 1540 1539 1539 1539 1539 1539 1539 1538 1538 1538 1538 1538 1538 1538 1538 1537 1537 1537 1537 1537 1536 1536 1536 1536